Preview of NWS' New Version of Forecast
This preview is not operational and should not be used for support decisions.

Regional Weather Roundup (RWR)

Issued by National Weather Service (NWS)

                            
000
ASUS45 KCYS 190810
RWRWY 

WYOMING REGIONAL WEATHER ROUNDUP
NATIONAL WEATHER SERVICE CHEYENNE WY
200 AM MDT MON AUG 19 2019

NOTE:  "FAIR" INDICATES FEW OR NO CLOUDS BELOW 12,000 FEET
WITH NO SIGNIFICANT WEATHER AND/OR OBSTRUCTIONS TO VISIBILITY.

WYZ001-190900-
YELLOWSTONE NATIONAL PARK
  
CITY           SKY/WX    TMP DP  RH WIND       PRES   REMARKS
LK YELLOWSTONE   N/A     41  35  79 NW3       30.21S                  
W YELLOWSTONE  NOT AVBL                                               

$$
WYZ002>013-054>058-071-098>099-190900-
NORTHERN WYOMING
  
CITY           SKY/WX    TMP DP  RH WIND       PRES   REMARKS
JACKSON        FAIR      49  34  56 CALM      30.13S                  
CODY           FAIR      60  36  40 CALM      29.97S                  
GREYBULL       FAIR      62  41  46 SE6       29.88S                  
WORLAND        FAIR      58  38  47 CALM      29.90F                  
SHERIDAN       FAIR      54  47  77 CALM      29.90F                  
BUFFALO        FAIR      61  45  55 SE6       29.97F                  
GILLETTE       FAIR      60  52  74 S10       29.95F                  
HULETT         FAIR      54  50  87 S7        29.98                   
NEWCASTLE      FAIR      68  45  42 E8        29.98                   

$$
WYZ014>020-022>026-101>103-190900-
CENTRAL WYOMING
  
CITY           SKY/WX    TMP DP  RH WIND       PRES   REMARKS
BIG PINEY      FAIR      46  29  51 E9        30.19S                  
PINEDALE       FAIR      41  34  75 W8        30.21                   
DUBOIS         FAIR      55  30  38 W8        30.15                   
LANDER         FAIR      65  32  29 VRB5      30.04S                  
RIVERTON       FAIR      62  34  35 SW8       30.03S                  
CASPER         FAIR      55  33  43 W5        30.03S                  
DOUGLAS        FAIR      58  50  75 SE6       30.01F                  

$$
WYZ021-027>030-104>119-190900-
SOUTHERN WYOMING
  
CITY           SKY/WX    TMP DP  RH WIND       PRES   REMARKS
EVANSTON       FAIR      61  28  28 S7        30.19R                  
KEMMERER       FAIR      52  30  43 SW7G18    30.21                   
ROCK SPRINGS   FAIR      60  25  26 N3        30.17S                  
DIXON          FAIR      51  32  47 E18       30.21S                  
RAWLINS        FAIR      54  24  31 W3        30.17S                  
SARATOGA       FAIR      52  30  43 SE7       30.21S                  
LARAMIE        FAIR      51  26  37 S9        30.21S                  
CHEYENNE       FAIR      59  33  37 W9        30.12R                  
TORRINGTON     FAIR      61  60  97 SE7       29.97S                  
PINE BLUFFS    FAIR      59  52  77 S9        30.05F                  

$$
  

000
ASUS45 KCYS 190810
RWRWY 

WYOMING REGIONAL WEATHER ROUNDUP
NATIONAL WEATHER SERVICE CHEYENNE WY
200 AM MDT MON AUG 19 2019

NOTE:  "FAIR" INDICATES FEW OR NO CLOUDS BELOW 12,000 FEET
WITH NO SIGNIFICANT WEATHER AND/OR OBSTRUCTIONS TO VISIBILITY.

WYZ001-190900-
...YELLOWSTONE NATIONAL PARK...
  
CITY           SKY/WX    TMP DP  RH WIND       PRES   REMARKS
LK YELLOWSTONE   N/A     41  35  79 NW3       30.21S                  
W YELLOWSTONE  NOT AVBL                                               

$$
WYZ002>013-054>058-071-098>099-190900-
...NORTHERN WYOMING...
  
CITY           SKY/WX    TMP DP  RH WIND       PRES   REMARKS
JACKSON        CLEAR     49  34  56 CALM      30.13S                  
CODY           CLEAR     60  36  40 CALM      29.97S                  
GREYBULL       CLEAR     62  41  46 SE6       29.88S                  
WORLAND        PTCLDY    58  38  47 CALM      29.90F                  
SHERIDAN       CLEAR     54  47  77 CALM      29.90F                  
BUFFALO        PTCLDY    61  45  55 SE6       29.97F                  
GILLETTE       CLEAR     60  52  74 S10       29.95F                  
HULETT         FAIR      54  50  87 S7        29.98S                  
NEWCASTLE      FAIR      68  45  42 E8        29.98S                  

$$
WYZ014>020-022>026-101>103-190900-
...CENTRAL WYOMING...
  
CITY           SKY/WX    TMP DP  RH WIND       PRES   REMARKS
BIG PINEY      CLEAR     46  29  51 E9        30.19S                  
PINEDALE       CLEAR     41  34  75 W8        30.21S                  
DUBOIS         FAIR      55  30  38 W8        30.15S                  
LANDER         PTCLDY    65  32  29 VRB5      30.04S                  
RIVERTON       PTCLDY    62  34  35 SW8       30.03S                  
CASPER         CLEAR     55  33  43 W5        30.03S                  
DOUGLAS        CLEAR     58  50  75 SE6       30.01F                  

$$
WYZ021-027>030-104>119-190900-
...SOUTHERN WYOMING...
  
CITY           SKY/WX    TMP DP  RH WIND       PRES   REMARKS
EVANSTON       CLEAR     61  28  28 S7        30.19R                  
KEMMERER       CLEAR     52  30  43 SW7G18    30.21R                  
FORT BRIDGER   NOT AVBL                                               
ROCK SPRINGS   CLEAR     60  25  26 N3        30.17S                  
DIXON          FAIR      51  32  47 E18       30.21S                  
RAWLINS        CLEAR     54  24  31 W3        30.17S                  
SARATOGA       FAIR      52  30  43 SE7       30.21S                  
LARAMIE        CLEAR     51  26  37 S9        30.21S                  
CHEYENNE       CLEAR     59  33  37 W9        30.12R                  
TORRINGTON     CLEAR     61  60  97 SE7       29.97S                  
PINE BLUFFS    FAIR      59  52  77 S9        30.05F                  

$$